Location: Hopkins Observatory
(42.6965°N, 73.1843°W)
Time: 05:13:12
(UTC-04:00)

Amateur Radio Satellites - All Passes

Search period start: 30 August 2016 04:43
Search period end: 31 August 2016 04:43
Location: Hopkins Observatory, 42.6965°N, 73.1843°W

Satellite Date Start Highest point End Downlink Frequencies (MHz)
Time Altitude Azimuth
CUBESAT XI-V 30 Aug 04:46:19 04:50:40 43° 71° (ENE) 04:55:04 437.345
AO-7 30 Aug 04:47:21 04:55:43 77° 107° (ESE) 05:04:00 29.400- 29.500
AO-85 30 Aug 04:47:47 04:52:55 52° 118° (ESE) 04:57:48 145.980
RS-15 30 Aug 04:51:11 05:01:09 29° 342° (NNW) 05:11:26 29.354- 29.394
PHONESAT 2.4 30 Aug 04:53:44 04:56:29 33° 196° (SSW) 04:59:14 2401.200-2431.200
MOZHAYETS 4 30 Aug 04:57:41 05:01:01 20° 267° (W) 05:04:22
STARS 30 Aug 05:00:26 05:04:39 42° 261° (W) 05:08:53 437.465
ITAMSAT 1 30 Aug 05:00:26 05:04:54 30° 294° (WNW) 05:09:21 435.822/435.867
BRITE-PL 30 Aug 05:31:26 05:35:40 21° 90° (E) 05:39:47 437.365/2234.400
STRAND 1 30 Aug 05:36:38 05:37:16 10° 56° (NE) 05:37:54 437.568
HORYU 2 30 Aug 05:43:55 05:48:12 48° 100° (E) 05:52:28 437.375
YUBILEINY 30 Aug 05:56:37 06:05:06 54° 90° (E) 06:13:35 435.215
SO-50 30 Aug 06:01:40 06:03:20 12° 31° (NNE) 06:04:58 436.795
Cubesat XI-IV 30 Aug 06:09:40 06:13:17 18° 92° (E) 06:16:53 437.490
NOAA 15 30 Aug 06:12:38 06:16:59 25° 94° (E) 06:21:19 137.62
LilacSat-2 30 Aug 06:18:14 06:20:48 17° 93° (E) 06:23:23 437.200
CUTE-I 30 Aug 06:20:13 06:24:24 23° 93° (E) 06:28:35 437.470
CUBESAT XI-V 30 Aug 06:24:55 06:28:15 20° 268° (W) 06:31:37 437.345
Cosmos 2504 30 Aug 06:26:19 06:33:12 30° 85° (E) 06:39:44 435.465 / 435.565
DOVE 4 30 Aug 06:26:56 06:28:44 12° 86° (E) 06:30:29 437.250
AO-85 30 Aug 06:29:13 06:33:38 27° 315° (NW) 06:37:50 145.980
GOMX 1 30 Aug 06:31:36 06:36:25 32° 94° (E) 06:40:58 467.674
Cosmos 2491 30 Aug 06:40:20 06:48:17 40° 274° (W) 06:56:14 435.465 / 435.565
AO-7 30 Aug 06:41:08 06:47:42 27° 307° (NW) 06:54:15 29.400- 29.500
RS-15 30 Aug 07:08:52 07:19:01 28° 17° (NNE) 07:29:13 29.354- 29.394
BRITE-PL 30 Aug 07:08:53 07:14:29 58° 288° (WNW) 07:19:55 437.365/2234.400
STRAND 1 30 Aug 07:10:27 07:15:32 74° 74° (ENE) 07:20:38 437.568
HORYU 2 30 Aug 07:21:28 07:24:23 17° 297° (WNW) 07:27:17 437.375
NOAA 18 30 Aug 07:22:21 07:27:50 72° 104° (ESE) 07:33:16 137.9125
SO-50 30 Aug 07:40:17 07:44:51 56° 52° (NE) 07:49:16 436.795
Cubesat XI-IV 30 Aug 07:48:31 07:53:44 59° 288° (WNW) 07:58:57 437.490
HO-68 30 Aug 07:50:06 07:55:49 25° 93° (E) 08:01:30 435.675
LilacSat-2 30 Aug 07:51:49 07:55:12 32° 289° (WNW) 07:58:33 437.200
NOAA 15 30 Aug 07:51:54 07:56:54 43° 291° (WNW) 08:01:54 137.62
YUBILEINY 30 Aug 07:54:20 08:02:13 35° 290° (WNW) 08:10:10 435.215
SEEDS 30 Aug 07:55:12 07:56:55 12° 90° (E) 07:58:39 437.485
CUTE-I 30 Aug 07:59:36 08:04:40 46° 290° (WNW) 08:09:43 437.470
DOVE 4 30 Aug 08:02:04 08:07:06 77° 285° (WNW) 08:11:48 437.250
PRISM 30 Aug 08:04:06 08:07:34 27° 68° (ENE) 08:11:04 437.425
GOMX 1 30 Aug 08:09:38 08:14:26 34° 293° (WNW) 08:19:01 467.674
Cosmos 2504 30 Aug 08:17:57 08:26:09 57° 282° (WNW) 08:33:50 435.465 / 435.565
AAUSAT CUBESAT 2 30 Aug 08:18:27 08:20:01 12° 90° (E) 08:21:34 437.432
ISS 30 Aug 08:19:35 08:22:52 77° 143° (SE) 08:26:09 145.825
CANX-2 30 Aug 08:20:35 08:24:35 38° 98° (E) 08:28:33 2200.000
CINEMA 3 30 Aug 08:22:49 08:27:09 47° 98° (E) 08:31:17 145.822/145.860
CUBEBUG 2 30 Aug 08:23:46 08:25:35 12° 90° (E) 08:27:23 437.445
CUTE 1.7 + AOD 2 30 Aug 08:26:08 08:30:07 38° 98° (E) 08:34:05 437.475
COMPASS 1 30 Aug 08:28:01 08:31:06 20° 93° (E) 08:34:11 437.405
BEESAT 3 30 Aug 08:36:55 08:40:07 24° 114° (ESE) 08:43:20 437.485
AIST 1 30 Aug 08:44:05 08:48:02 35° 91° (E) 08:52:02
STRAND 1 30 Aug 08:52:48 08:55:15 13° 271° (W) 08:57:42 437.568
NOAA 18 30 Aug 09:04:23 09:07:53 18° 301° (WNW) 09:11:22 137.9125
TIGRISAT 30 Aug 09:15:06 09:18:12 18° 65° (ENE) 09:21:16 435.000
CUSAT 1 30 Aug 09:19:17 09:25:21 36° 73° (ENE) 09:32:20 437.405
SO-50 30 Aug 09:21:55 09:24:50 17° 250° (WSW) 09:27:43 436.795
RS-15 30 Aug 09:22:35 09:34:51 61° 48° (NE) 09:46:54 29.354- 29.394
Oscar 11 30 Aug 09:23:55 09:27:33 26° 95° (E) 09:31:08 145.826/435.025
SEEDS 30 Aug 09:28:50 09:32:59 59° 286° (WNW) 09:37:08 437.485
DELFI C3 30 Aug 09:33:11 09:34:57 13° 91° (E) 09:36:43 145.870
FUNcube-1 30 Aug 09:35:11 09:38:51 30° 96° (E) 09:42:30 145.935
HO-68 30 Aug 09:36:56 09:44:01 64° 291° (WNW) 09:51:02 435.675
PRISM 30 Aug 09:39:26 09:42:49 25° 264° (W) 09:46:16 437.425
DOVE 4 30 Aug 09:43:13 09:43:48 10° 304° (WNW) 09:44:23 437.250
UNISAT 6 30 Aug 09:43:25 09:47:35 36° 70° (ENE) 09:51:42 437.425
UWE-3 30 Aug 09:49:55 09:54:07 78° 104° (ESE) 09:58:14 435.000/436.395/437.385
AAUSAT CUBESAT 2 30 Aug 09:51:44 09:55:51 59° 286° (WNW) 09:59:58 437.432
ISS 30 Aug 09:56:52 09:59:37 24° 343° (NNW) 10:02:23 145.825
CANX-2 30 Aug 09:57:07 10:00:10 20° 294° (WNW) 10:03:13 2200.000
ZACube-1 30 Aug 09:58:00 10:02:07 60° 101° (E) 10:06:12 437.345
CUBEBUG 2 30 Aug 09:58:28 10:02:36 55° 287° (WNW) 10:06:38 437.445
CINEMA 3 30 Aug 10:00:57 10:03:53 17° 297° (WNW) 10:06:44 145.822/145.860
BEESAT 2 30 Aug 10:01:15 10:05:12 79° 304° (NW) 10:09:12 435.950
CUTE 1.7 + AOD 2 30 Aug 10:02:38 10:05:42 20° 294° (WNW) 10:08:45 437.475
COMPASS 1 30 Aug 10:02:56 10:06:45 35° 289° (WNW) 10:10:34 437.405
BEESAT 3 30 Aug 10:14:08 10:17:39 31° 311° (NW) 10:21:13 437.485
GONETS M04 30 Aug 10:16:49 10:21:44 17° 75° (ENE) 10:26:39
DUCHIFAT 1 30 Aug 10:19:08 10:20:30 11° 61° (ENE) 10:21:52 145.980
ANTELSAT 30 Aug 10:19:48 10:24:23 86° 73° (ENE) 10:28:53 437.575/2403.000
HUMSAT D 30 Aug 10:19:49 10:22:56 21° 94° (E) 10:26:02 437.325/437.525
Cosmos 2504 30 Aug 10:19:56 10:21:19 10° 304° (NW) 10:22:41 435.465 / 435.565
PCSat 30 Aug 10:22:24 10:25:59 18° 105° (ESE) 10:29:36 145.827
AIST 1 30 Aug 10:22:27 10:25:44 21° 289° (WNW) 10:29:03
QB50P2 30 Aug 10:24:40 10:27:16 16° 64° (ENE) 10:29:51 145.880/145.840
POLYITAN 1 30 Aug 10:27:08 10:29:46 16° 64° (ENE) 10:32:23 437.675
NANOSAT C BR1 30 Aug 10:32:49 10:35:35 17° 64° (ENE) 10:38:21 145.865
DANDE 30 Aug 10:42:40 10:48:16 61° 78° (ENE) 10:55:29 436.750
TIGRISAT 30 Aug 10:50:06 10:54:33 48° 261° (W) 10:58:55 435.000
Oscar 11 30 Aug 10:59:55 11:03:38 29° 291° (WNW) 11:07:22 145.826/435.025
AIST 2 30 Aug 11:00:50 11:03:38 18° 111° (ESE) 11:06:28 435.215
CUSAT 1 30 Aug 11:01:02 11:07:26 48° 266° (W) 11:14:51 437.405
BUGSAT 1 30 Aug 11:01:13 11:03:31 14° 63° (ENE) 11:05:47 437.445
DELFI C3 30 Aug 11:06:11 11:10:06 52° 286° (WNW) 11:14:00 145.870
FUNcube-1 30 Aug 11:11:42 11:14:58 23° 293° (WNW) 11:18:12 145.935
Cosmos 2499 30 Aug 11:15:13 11:21:54 30° 85° (E) 11:28:12 435.465 / 435.565
QB50P1 30 Aug 11:16:58 11:21:07 52° 73° (ENE) 11:25:17 145.935-145.965
UNISAT 6 30 Aug 11:20:46 11:24:23 23° 266° (W) 11:27:56 437.425
JAS-2 30 Aug 11:21:03 11:25:41 32° 65° (ENE) 11:30:38 435.910
HO-68 30 Aug 11:27:10 11:30:22 14° 311° (NW) 11:33:33 435.675
POPSAT HIP 1 30 Aug 11:27:11 11:31:25 67° 74° (ENE) 11:35:40 437.405
UWE-3 30 Aug 11:29:37 11:29:56 10° 300° (WNW) 11:30:14 435.000/436.395/437.385
ISS 30 Aug 11:34:37 11:36:54 17° 3° (N) 11:39:11 145.825
AUBIESAT-1 30 Aug 11:35:03 11:37:53 19° 97° (E) 11:40:34 437.475
RS-15 30 Aug 11:35:39 11:47:04 47° 251° (WSW) 11:58:17 29.354- 29.394
ZACube-1 30 Aug 11:36:05 11:37:55 13° 297° (WNW) 11:39:44 437.345
BEESAT 2 30 Aug 11:42:15 11:43:43 12° 323° (NW) 11:45:10 435.950
M-CUBED/EXP-1 PRIME 30 Aug 11:42:51 11:46:24 29° 100° (E) 11:49:41 437.505
AISAT 30 Aug 11:43:39 11:46:27 16° 92° (E) 11:49:15 437.250
Oscar 19 30 Aug 11:44:20 11:45:10 10° 56° (NE) 11:46:01 437.125/150
ESTCUBE 1 30 Aug 11:46:37 11:50:41 32° 96° (E) 11:54:44 437.505/2401.250
DUCHIFAT 1 30 Aug 11:51:20 11:55:35 74° 257° (WSW) 11:59:51 145.980
HUMSAT D 30 Aug 11:54:58 11:58:37 32° 290° (WNW) 12:02:16 437.325/437.525
QB50P2 30 Aug 11:58:30 12:02:39 50° 260° (W) 12:06:50 145.880/145.840
POLYITAN 1 30 Aug 12:01:00 12:05:09 50° 260° (W) 12:09:20 437.675
PCSat 30 Aug 12:03:26 12:08:49 65° 303° (WNW) 12:14:15 145.827
NANOSAT C BR1 30 Aug 12:06:52 12:10:57 46° 261° (W) 12:15:04 145.865
GONETS M04 30 Aug 12:08:19 12:17:05 83° 95° (E) 12:25:57
CUBEBUG 1 30 Aug 12:23:45 12:28:05 51° 100° (E) 12:32:22 437.445
DANDE 30 Aug 12:26:19 12:30:51 23° 269° (W) 12:36:13 436.750
SPROUT 30 Aug 12:27:55 12:31:22 23° 94° (E) 12:34:47 437.525
VELOX 1 30 Aug 12:29:31 12:33:50 47° 99° (E) 12:38:07 145.980
BUGSAT 1 30 Aug 12:34:14 12:38:25 57° 260° (W) 12:42:37 437.445
DX 1 30 Aug 12:36:46 12:40:52 37° 98° (E) 12:44:55 434.975-435.025
AIST 2 30 Aug 12:37:50 12:41:47 45° 308° (NW) 12:45:47 435.215
50 SAT 30 Aug 12:40:11 12:43:49 66° 102° (ESE) 12:47:27 437.505
QB50P1 30 Aug 12:54:53 12:57:11 14° 269° (W) 12:59:31 145.935-145.965
JAS-2 30 Aug 13:06:04 13:10:45 33° 265° (W) 13:15:47 435.910
POPSAT HIP 1 30 Aug 13:06:24 13:07:38 11° 271° (W) 13:08:53 437.405
Cosmos 2499 30 Aug 13:06:48 13:14:39 54° 283° (WNW) 13:21:58 435.465 / 435.565
AUBIESAT-1 30 Aug 13:08:52 13:12:28 32° 296° (WNW) 13:15:49 437.475
O/OREOS (USA 219) 30 Aug 13:10:59 13:15:09 39° 106° (ESE) 13:19:22 437.305
ISS 30 Aug 13:11:03 13:14:05 33° 23° (NNE) 13:17:06 145.825
UKube-1 30 Aug 13:11:17 13:15:38 69° 103° (ESE) 13:19:57 .
Gurwin Techsat 1B 30 Aug 13:14:15 13:18:55 33° 67° (ENE) 13:23:37 435.225
M-CUBED/EXP-1 PRIME 30 Aug 13:17:33 13:20:47 23° 300° (WNW) 13:23:48 437.505
Oscar 19 30 Aug 13:18:25 13:23:33 73° 73° (ENE) 13:28:45 437.125/150
AISAT 30 Aug 13:18:53 13:23:12 49° 288° (WNW) 13:27:28 437.250
AO-85 30 Aug 13:19:23 13:23:35 47° 51° (NE) 13:27:27 145.980
ESTCUBE 1 30 Aug 13:23:35 13:27:22 26° 293° (WNW) 13:31:08 437.505/2401.250
PCSat 30 Aug 13:50:32 13:53:18 14° 324° (NW) 13:56:04 145.827
AO-7 30 Aug 13:56:40 14:03:15 27° 53° (NE) 14:09:48 29.400- 29.500
CUBEBUG 1 30 Aug 14:01:09 14:03:58 17° 297° (WNW) 14:06:45 437.445
SPROUT 30 Aug 14:03:33 14:07:20 31° 291° (WNW) 14:11:05 437.525
VELOX 1 30 Aug 14:06:54 14:09:56 18° 296° (WNW) 14:12:59 145.980
GONETS M04 30 Aug 14:08:30 14:15:01 23° 297° (WNW) 14:21:38
TISAT 1 30 Aug 14:11:02 14:15:14 68° 102° (ESE) 14:19:23 437.305
DX 1 30 Aug 14:13:28 14:16:49 22° 295° (WNW) 14:20:09 434.975-435.025
ITAMSAT 1 30 Aug 14:39:21 14:44:26 59° 72° (ENE) 14:49:32 435.822/435.867
ITUPSAT 1 30 Aug 14:39:54 14:43:53 26° 95° (E) 14:47:51 437.325
ISS 30 Aug 14:47:30 14:50:36 39° 221° (SW) 14:53:40 145.825
UKube-1 30 Aug 14:49:15 14:51:06 13° 299° (WNW) 14:52:57 .
O/OREOS (USA 219) 30 Aug 14:51:06 14:54:41 23° 304° (NW) 14:58:19 437.305
Gurwin Techsat 1B 30 Aug 14:54:02 14:58:48 34° 264° (W) 15:03:37 435.225
Oscar 19 30 Aug 15:00:46 15:03:25 14° 271° (W) 15:06:04 437.125/150
AO-85 30 Aug 15:00:56 15:03:32 16° 251° (WSW) 15:06:02 145.980
SWISSCUBE 30 Aug 15:10:44 15:15:28 60° 101° (E) 15:20:10 437.505
BEESAT 30 Aug 15:27:29 15:32:17 79° 105° (ESE) 15:37:02 436.000
AO-7 30 Aug 15:46:50 15:55:12 78° 253° (WSW) 16:03:36 29.400- 29.500
TISAT 1 30 Aug 15:48:44 15:50:18 12° 299° (WNW) 15:51:52 437.305
YUBILEINY 30 Aug 16:06:12 16:13:27 28° 66° (ENE) 16:20:37 435.215
ITUPSAT 1 30 Aug 16:17:26 16:21:45 35° 292° (WNW) 16:26:05 437.325
ITAMSAT 1 30 Aug 16:20:53 16:24:17 17° 268° (W) 16:27:41 435.822/435.867
KKS-1 30 Aug 16:21:50 16:25:52 33° 97° (E) 16:29:52 437.445
HORYU 2 30 Aug 16:42:23 16:46:41 49° 71° (ENE) 16:50:59 437.375
BEESAT 2 30 Aug 16:42:33 16:43:59 12° 36° (NE) 16:45:26 435.950
BRITE-PL 30 Aug 16:42:51 16:46:48 24° 63° (ENE) 16:50:59 437.365/2234.400
CUBESAT XI-V 30 Aug 16:45:07 16:45:39 10° 87° (E) 16:46:11 437.345
STARS 30 Aug 16:49:03 16:52:59 31° 97° (E) 16:56:52 437.465
SWISSCUBE 30 Aug 16:49:48 16:52:46 17° 298° (WNW) 16:55:46 437.505
MOZHAYETS 4 30 Aug 16:50:12 16:54:48 90° 93° (E) 16:59:24
BEESAT 3 30 Aug 16:53:00 16:56:08 22° 45° (NE) 16:59:15 437.485
LilacSat-2 30 Aug 17:02:41 17:03:45 11° 63° (ENE) 17:04:50 437.200
BEESAT 30 Aug 17:07:16 17:09:24 13° 301° (WNW) 17:11:33 436.000
NOAA 18 30 Aug 17:10:43 17:14:50 22° 61° (ENE) 17:18:56 137.9125
Cubesat XI-IV 30 Aug 17:32:00 17:36:44 33° 67° (ENE) 17:41:28 437.490
DOVE 4 30 Aug 17:32:02 17:35:12 16° 61° (ENE) 17:38:23 437.250
NOAA 15 30 Aug 17:33:13 17:38:09 43° 69° (ENE) 17:43:08 137.62
GOMX 1 30 Aug 17:39:39 17:44:23 37° 68° (ENE) 17:49:21 467.674
CUTE-I 30 Aug 17:42:31 17:47:29 41° 68° (ENE) 17:52:28 437.470
AO-7 30 Aug 17:44:46 17:49:13 15° 272° (W) 17:53:41 29.400- 29.500
Cosmos 2491 30 Aug 17:45:05 17:53:25 53° 90° (E) 18:01:49 435.465 / 435.565
KKS-1 30 Aug 17:58:40 18:02:17 25° 294° (WNW) 18:05:53 437.445
YUBILEINY 30 Aug 18:02:18 18:10:59 68° 268° (W) 18:19:35 435.215
Cosmos 2504 30 Aug 18:09:34 18:16:36 53° 76° (ENE) 18:23:35 435.465 / 435.565
BEESAT 2 30 Aug 18:18:29 18:22:31 77° 56° (NE) 18:26:31 435.950
CUBESAT XI-V 30 Aug 18:18:53 18:23:37 84° 284° (WNW) 18:28:20 437.345
BRITE-PL 30 Aug 18:20:08 18:24:54 47° 263° (W) 18:30:04 437.365/2234.400
HO-68 30 Aug 18:20:32 18:25:46 22° 56° (NE) 18:31:00 435.675
HORYU 2 30 Aug 18:20:44 18:23:30 16° 268° (W) 18:26:17 437.375
STARS 30 Aug 18:25:36 18:29:12 25° 293° (WNW) 18:32:48 437.465
BEESAT 3 30 Aug 18:30:13 18:33:57 40° 243° (WSW) 18:37:40 437.485
MOZHAYETS 4 30 Aug 18:30:17 18:31:14 11° 301° (WNW) 18:32:12
LilacSat-2 30 Aug 18:33:46 18:37:33 61° 259° (W) 18:41:21 437.200
NOAA 18 30 Aug 18:49:37 18:55:03 58° 258° (WSW) 19:00:31 137.9125
SEEDS 30 Aug 18:49:44 18:49:54 10° 61° (ENE) 18:50:05 437.485
AIST 1 30 Aug 18:52:42 18:53:27 10° 66° (ENE) 18:54:11
DOVE 4 30 Aug 19:07:00 19:12:13 75° 258° (WSW) 19:17:33 437.250
PCSat 30 Aug 19:07:55 19:12:03 21° 43° (NE) 19:16:10 145.827
Cubesat XI-IV 30 Aug 19:11:58 19:16:45 33° 263° (W) 19:21:33 437.490
NOAA 15 30 Aug 19:13:50 19:18:05 25° 266° (W) 19:22:23 137.62
CANX-2 30 Aug 19:14:09 19:17:49 30° 69° (ENE) 19:21:30 2200.000
GOMX 1 30 Aug 19:17:58 19:22:28 30° 267° (W) 19:27:12 467.674
CUTE 1.7 + AOD 2 30 Aug 19:19:35 19:23:15 30° 69° (ENE) 19:26:56 437.475
COMPASS 1 30 Aug 19:20:15 19:22:41 15° 64° (ENE) 19:25:07 437.405
AIST 2 30 Aug 19:20:32 19:23:35 19° 42° (NE) 19:26:38 435.215
STRAND 1 30 Aug 19:20:49 19:24:52 23° 94° (E) 19:28:54 437.568
CUBEBUG 2 30 Aug 19:22:26 19:24:56 15° 63° (ENE) 19:27:23 437.445
CUTE-I 30 Aug 19:23:13 19:27:39 26° 265° (W) 19:32:05 437.470
CINEMA 3 30 Aug 19:24:07 19:28:57 50° 72° (ENE) 19:33:43 145.822/145.860
Cosmos 2491 30 Aug 19:42:45 19:50:33 36° 290° (WNW) 19:58:28 435.465 / 435.565
CUBESAT XI-V 30 Aug 19:59:36 20:00:12 10° 301° (WNW) 20:00:49 437.345
YUBILEINY 30 Aug 20:02:56 20:05:58 12° 288° (WNW) 20:09:01 435.215
Cosmos 2504 30 Aug 20:03:42 20:09:31 27° 276° (W) 20:15:19 435.465 / 435.565
HO-68 30 Aug 20:05:30 20:12:42 80° 255° (WSW) 20:19:57 435.675
Oscar 11 30 Aug 20:19:38 20:22:59 22° 67° (ENE) 20:26:20 145.826/435.025
SEEDS 30 Aug 20:20:48 20:24:58 80° 259° (W) 20:29:09 437.485
AIST 1 30 Aug 20:27:13 20:31:39 76° 263° (W) 20:36:00
FUNcube-1 30 Aug 20:31:16 20:35:01 28° 69° (ENE) 20:38:41 145.935
AAUSAT CUBESAT 2 30 Aug 20:42:12 20:46:18 84° 258° (WSW) 20:50:27 437.432
UWE-3 30 Aug 20:46:58 20:51:28 69° 75° (ENE) 20:55:53 435.000/436.395/437.385
CANX-2 30 Aug 20:50:18 20:53:41 23° 266° (W) 20:57:05 2200.000
PCSat 30 Aug 20:50:35 20:55:59 71° 244° (WSW) 21:01:22 145.827
COMPASS 1 30 Aug 20:53:52 20:57:51 48° 261° (W) 21:01:52 437.405
ZACube-1 30 Aug 20:54:03 20:58:21 52° 73° (ENE) 21:02:34 437.345
CUTE 1.7 + AOD 2 30 Aug 20:55:43 20:59:06 23° 266° (W) 21:02:30 437.475
CUBEBUG 2 30 Aug 20:56:26 21:01:04 64° 259° (W) 21:05:35 437.445
AIST 2 30 Aug 20:58:17 21:02:23 55° 241° (WSW) 21:06:28 435.215
STRAND 1 30 Aug 20:59:23 21:04:12 43° 291° (WNW) 21:09:01 437.568
CINEMA 3 30 Aug 21:02:42 21:06:18 20° 268° (W) 21:09:54 145.822/145.860
HUMSAT D 30 Aug 21:12:21 21:15:03 17° 65° (ENE) 21:17:43 437.325/437.525
PRISM 30 Aug 21:19:20 21:23:17 39° 98° (E) 21:27:11 437.425
O/OREOS (USA 219) 30 Aug 21:42:37 21:44:17 12° 48° (NE) 21:45:57 437.305
DELFI C3 30 Aug 21:52:15 21:56:10 85° 254° (WSW) 22:00:09 145.870
Oscar 11 30 Aug 21:55:01 21:58:55 34° 263° (W) 22:02:51 145.826/435.025
SO-50 30 Aug 21:56:43 21:59:37 16° 109° (ESE) 22:02:30 436.795
HO-68 30 Aug 21:58:05 22:01:29 14° 273° (W) 22:04:53 435.675
FUNcube-1 30 Aug 22:07:25 22:11:12 27° 265° (W) 22:14:55 145.935
ANTELSAT 30 Aug 22:12:01 22:14:39 16° 92° (E) 22:17:15 437.575/2403.000
GONETS M04 30 Aug 22:17:54 22:26:16 43° 73° (ENE) 22:34:33
AUBIESAT-1 30 Aug 22:20:09 22:24:19 34° 64° (ENE) 22:28:26 437.475
CUSAT 1 30 Aug 22:26:26 22:28:17 14° 83° (E) 22:30:22 437.405
UWE-3 30 Aug 22:26:42 22:28:21 12° 271° (W) 22:29:58 435.000/436.395/437.385
M-CUBED/EXP-1 PRIME 30 Aug 22:28:27 22:32:58 49° 67° (ENE) 22:37:29 437.505
ZACube-1 30 Aug 22:32:22 22:34:54 15° 269° (W) 22:37:24 437.345
TIGRISAT 30 Aug 22:41:02 22:44:50 30° 96° (E) 22:48:35 435.000
AISAT 30 Aug 22:41:55 22:44:50 17° 63° (ENE) 22:47:45 437.250
HUMSAT D 30 Aug 22:46:24 22:50:21 42° 261° (W) 22:54:17 437.325/437.525
ESTCUBE 1 30 Aug 22:46:50 22:50:47 32° 69° (ENE) 22:54:47 437.505/2401.250
PRISM 30 Aug 22:55:20 22:58:18 19° 295° (WNW) 23:01:16 437.425
Cosmos 2499 30 Aug 22:56:32 23:03:26 53° 77° (ENE) 23:10:25 435.465 / 435.565
UNISAT 6 30 Aug 23:10:31 23:14:48 71° 101° (ESE) 23:19:03 437.425
50 SAT 30 Aug 23:18:10 23:21:20 30° 71° (ENE) 23:24:32 437.505
O/OREOS (USA 219) 30 Aug 23:19:48 23:24:25 86° 66° (ENE) 23:29:02 437.305
CUBEBUG 1 30 Aug 23:20:08 23:24:20 46° 72° (ENE) 23:28:35 437.445
SPROUT 30 Aug 23:22:23 23:25:37 21° 66° (ENE) 23:28:50 437.525
VELOX 1 30 Aug 23:27:16 23:31:30 45° 71° (ENE) 23:35:47 145.980
DX 1 30 Aug 23:32:51 23:36:50 36° 69° (ENE) 23:40:51 434.975-435.025
SO-50 30 Aug 23:34:44 23:39:35 68° 306° (NW) 23:44:23 436.795
DUCHIFAT 1 30 Aug 23:35:52 23:38:29 16° 92° (E) 23:41:07 145.980
QB50P2 30 Aug 23:43:04 23:46:29 24° 94° (E) 23:49:53 145.880/145.840
POLYITAN 1 30 Aug 23:45:34 23:48:59 24° 95° (E) 23:52:23 437.675
ANTELSAT 30 Aug 23:47:32 23:51:38 45° 288° (WNW) 23:55:40 437.575/2403.000
RS-15 30 Aug 23:48:33 23:58:04 32° 103° (ESE) 00:07:57 29.354- 29.394
NANOSAT C BR1 30 Aug 23:50:45 23:54:16 25° 95° (E) 23:57:44 145.865
AUBIESAT-1 30 Aug 23:54:44 23:58:43 28° 259° (W) 00:02:42 437.475
DANDE 30 Aug 23:55:25 23:57:57 44° 95° (E) 00:00:49 436.750
M-CUBED/EXP-1 PRIME 31 Aug 00:04:14 00:07:39 20° 262° (W) 00:11:05 437.505
UKube-1 31 Aug 00:06:11 00:10:27 64° 74° (ENE) 00:14:46 .
CUSAT 1 31 Aug 00:07:05 00:09:51 26° 291° (WNW) 00:13:16 437.405
JAS-2 31 Aug 00:11:49 00:18:08 34° 95° (E) 00:24:54 435.910
GONETS M04 31 Aug 00:14:53 00:23:03 44° 273° (W) 00:31:13
BUGSAT 1 31 Aug 00:16:10 00:19:06 19° 93° (E) 00:22:01 437.445
AISAT 31 Aug 00:16:33 00:20:53 50° 260° (W) 00:25:16 437.250
TIGRISAT 31 Aug 00:17:59 00:21:24 24° 293° (WNW) 00:24:48 435.000
ESTCUBE 1 31 Aug 00:23:55 00:27:37 25° 265° (W) 00:31:21 437.505/2401.250
PHONESAT 2.4 31 Aug 00:34:08 00:36:29 21° 157° (SSE) 00:38:50 2401.200-2431.200
QB50P1 31 Aug 00:36:26 00:40:40 89° 93° (E) 00:44:53 145.935-145.965
POPSAT HIP 1 31 Aug 00:46:51 00:51:03 72° 285° (WNW) 00:55:13 437.405
UNISAT 6 31 Aug 00:49:26 00:50:56 12° 299° (WNW) 00:52:26 437.425
Cosmos 2499 31 Aug 00:50:27 00:56:05 27° 276° (W) 01:01:48 435.465 / 435.565
50 SAT 31 Aug 00:52:40 00:54:59 16° 267° (W) 00:57:20 437.505
SPROUT 31 Aug 00:57:18 01:01:18 37° 262° (W) 01:05:20 437.525
CUBEBUG 1 31 Aug 00:57:57 01:00:51 17° 268° (W) 01:03:46 437.445
BEESAT 31 Aug 01:00:11 01:02:04 12° 59° (ENE) 01:03:58 436.000
TISAT 1 31 Aug 01:02:59 01:07:08 55° 73° (ENE) 01:11:17 437.305
VELOX 1 31 Aug 01:05:13 01:08:11 18° 268° (W) 01:11:12 145.980
DX 1 31 Aug 01:09:44 01:13:07 22° 266° (W) 01:16:31 434.975-435.025
DUCHIFAT 1 31 Aug 01:10:25 01:14:24 43° 288° (WNW) 01:18:22 145.980
SO-50 31 Aug 01:18:26 01:20:56 14° 326° (NW) 01:23:26 436.795
QB50P2 31 Aug 01:18:36 01:22:18 30° 291° (WNW) 01:25:58 145.880/145.840
POLYITAN 1 31 Aug 01:21:07 01:24:48 30° 291° (WNW) 01:28:26 437.675
NANOSAT C BR1 31 Aug 01:26:22 01:29:58 28° 292° (WNW) 01:33:32 145.865
Oscar 19 31 Aug 01:29:50 01:34:02 24° 94° (E) 01:38:11 437.125/150
Gurwin Techsat 1B 31 Aug 01:31:52 01:33:22 11° 88° (E) 01:34:52 435.225
UKube-1 31 Aug 01:45:16 01:46:54 12° 270° (W) 01:48:35 .
ITUPSAT 1 31 Aug 01:47:16 01:51:30 33° 68° (ENE) 01:55:45 437.325
BUGSAT 1 31 Aug 01:50:49 01:54:37 36° 290° (WNW) 01:58:20 437.445
JAS-2 31 Aug 01:56:36 02:03:15 51° 291° (WNW) 02:10:32 435.910
RS-15 31 Aug 01:57:42 02:09:19 77° 306° (NW) 02:21:37 29.354- 29.394
PHONESAT 2.4 31 Aug 02:09:34 02:12:30 50° 173° (S) 02:15:26 2401.200-2431.200
SWISSCUBE 31 Aug 02:17:43 02:22:27 75° 75° (ENE) 02:27:13 437.505
MOZHAYETS 4 31 Aug 02:19:38 02:20:36 11° 59° (ENE) 02:21:35
BEESAT 31 Aug 02:34:24 02:39:10 84° 255° (WSW) 02:43:57 436.000
TISAT 1 31 Aug 02:41:01 02:43:06 13° 269° (W) 02:45:12 437.305
ITAMSAT 1 31 Aug 02:52:18 02:55:59 19° 92° (E) 02:59:39 435.822/435.867
Oscar 19 31 Aug 03:08:35 03:13:31 43° 290° (WNW) 03:18:23 437.125/150
Gurwin Techsat 1B 31 Aug 03:08:40 03:14:02 90° 98° (E) 03:19:21 435.225
KKS-1 31 Aug 03:20:26 03:24:28 34° 69° (ENE) 03:28:31 437.445
ITUPSAT 1 31 Aug 03:25:19 03:29:20 27° 264° (W) 03:33:24 437.325
AO-85 31 Aug 03:35:11 03:38:26 17° 109° (ESE) 03:41:35 145.980
PHONESAT 2.4 31 Aug 03:45:46 03:48:40 46° 189° (S) 03:51:34 2401.200-2431.200
STARS 31 Aug 03:46:16 03:50:10 31° 68° (ENE) 03:54:06 437.465
JAS-2 31 Aug 03:46:20 03:46:56 10° 309° (NW) 03:47:33 435.910
AO-7 31 Aug 03:48:03 03:55:26 34° 97° (E) 04:02:44 29.400- 29.500
CUBESAT XI-V 31 Aug 03:48:45 03:50:31 12° 60° (ENE) 03:52:18 437.345
MOZHAYETS 4 31 Aug 03:52:29 03:57:03 89° 253° (WSW) 04:01:38
Cosmos 2491 31 Aug 03:54:40 04:01:57 28° 66° (ENE) 04:09:11 435.465 / 435.565
SWISSCUBE 31 Aug 03:59:03 04:00:46 12° 271° (W) 04:02:30 437.505
RS-15 31 Aug 04:13:53 04:24:12 32° 335° (NNW) 04:34:54 29.354- 29.394
ITAMSAT 1 31 Aug 04:30:43 04:35:45 54° 289° (WNW) 04:40:47 435.822/435.867
